Location: Hamilton
(37.7830°S, 175.2830°E)
Time: 11:07:26
(UTC+13:00)

Cosmos 2333 Rocket - Pass Details

Date: 24 January 2019
Orbit: 840 x 862 km, 70.8° (Epoch: 14 February)

Event Time Altitude Azimuth Distance (km) Brightness Sun altitude
Exits shadow 23:34:59 63° 97° (E) 965 2.3 -26.8°
Drops below altitude 10° 23:40:19 10° 152° (SSE) 2,525 5.0 -27.3°
Sets 23:42:48 0° 154° (SSE) 3,466 5.8 -27.6°
